KE5OYL Weather Reports


time (UTC)temp
C
wind
direction
speed
KPH
gust
KPH
rain 1hr
cm
rain 24hr
cm
rain mn
cm
humidity
%
barometer
mb
20260508023305 18 117 6.4 8.0 0.00 0.00 0.00 69 1015.6
20260508022801 18 42 1.6 4.8 0.00 0.00 0.00 68 1015.8
20260508022257 18 42 1.6 3.2 0.00 0.00 0.00 68 1015.9
20260508021755 18 36 1.6 4.8 0.00 0.00 0.00 67 1015.5
20260508021250 18 40 1.6 3.2 0.00 0.00 0.00 66 1015.9
20260508020747 19 45 1.6 3.2 0.00 0.00 0.00 66 1015.6
20260508020245 19 52 1.6 3.2 0.00 0.00 0.00 66 1015.6
20260508015741 18 60 4.8 4.8 0.00 0.00 0.00 66 1015.5
20260508015239 19 46 3.2 4.8 0.00 0.00 0.00 66 1015.4
20260508014735 19 45 3.2 4.8 0.00 0.00 0.00 65 1015.4
20260508014232 19 34 1.6 3.2 0.00 0.00 0.00 66 1015.4
20260508013728 19 40 1.6 3.2 0.00 0.00 0.00 66 1015.5
20260508013225 19 36 1.6 1.6 0.00 0.00 0.00 65 1015.6
20260508012722 19 141 4.8 4.8 0.00 0.00 0.00 65 1015.7
20260508012219 19 45 1.6 3.2 0.00 0.00 0.00 65 1015.6
20260508011717 19 82 3.2 3.2 0.00 0.00 0.00 64 1015.4
20260508011215 19 46 3.2 3.2 0.00 0.00 0.00 64 1015.4
20260508010711 19 153 3.2 4.8 0.00 0.00 0.00 63 1015.6
20260508010209 20 200 3.2 4.8 0.00 0.00 0.00 63 1015.5
20260508005706 20 171 4.8 4.8 0.00 0.00 0.00 62 1015.4
20260508005203 19 64 3.2 4.8 0.00 0.00 0.00 62 1015.4
20260508004658 19 184 6.4 8.0 0.00 0.00 0.00 62 1015.2
20260508004154 20 106 1.6 3.2 0.00 0.00 0.00 62 1015.4
20260508003652 20 110 4.8 4.8 0.00 0.00 0.00 62 1015.5
20260508003149 20 101 3.2 4.8 0.00 0.00 0.00 62 1015.6
20260508002645 20 164 3.2 9.7 0.00 0.00 0.00 61 1015.5
20260508002143 20 236 4.8 8.0 0.00 0.00 0.00 62 1015.5
20260508001638 20 40 1.6 4.8 0.00 0.00 0.00 61 1015.7
20260508001134 20 215 4.8 4.8 0.00 0.00 0.00 61 1015.7
20260508000630 20 188 6.4 8.0 0.00 0.00 0.00 61 1015.7
20260508000128 20 210 4.8 4.8 0.00 0.00 0.00 61 1015.8
20260507235624 20 210 4.8 8.0 0.00 0.00 0.00 60 1015.5
20260507235122 20 236 4.8 9.7 0.00 0.00 0.00 60 1015.6
20260507234618 20 168 4.8 8.0 0.00 0.00 0.00 60 1015.8
20260507234115 20 206 8.0 11.3 0.00 0.00 0.00 60 1015.6
20260507233612 20 213 6.4 8.0 0.00 0.00 0.00 59 1015.7
20260507233110 20 90 4.8 9.7 0.00 0.00 0.00 60 1015.7
20260507232611 20 161 4.8 11.3 0.00 0.00 0.00 60 1015.7
20260507232104 20 170 6.4 11.3 0.00 0.00 0.00 60 1015.6
20260507231600 20 166 6.4 9.7 0.00 0.00 0.00 60 1015.7
20260507231057 20 150 4.8 4.8 0.00 0.00 0.00 59 1015.7
20260507230554 20 181 4.8 9.7 0.00 0.00 0.00 59 1015.8
20260507230050 20 184 9.7 9.7 0.00 0.00 0.00 59 1015.9
20260507225545 20 171 8.0 11.3 0.00 0.00 0.00 59 1015.7
20260507225042 20 58 3.2 9.7 0.00 0.00 0.00 59 1015.8
20260507224538 20 202 4.8 11.3 0.00 0.00 0.00 58 1016.0
20260507224035 20 153 8.0 9.7 0.00 0.00 0.00 58 1016.1
20260507223531 20 197 8.0 12.9 0.00 0.00 0.00 58 1015.9
20260507223028 20 164 6.4 9.7 0.00 0.00 0.00 58 1016.0
20260507222525 20 233 4.8 8.0 0.00 0.00 0.00 58 1016.0
20260507222021 20 102 1.6 11.3 0.00 0.00 0.00 57 1016.2
20260507221518 20 219 4.8 8.0 0.00 0.00 0.00 57 1016.0
20260507221015 21 83 3.2 9.7 0.00 0.00 0.00 57 1015.8
20260507220512 20 153 8.0 11.3 0.00 0.00 0.00 57 1016.0
20260507220009 21 221 4.8 11.3 0.00 0.00 0.00 57 1016.0
20260507215505 21 225 3.2 8.0 0.00 0.00 0.00 56 1016.2
20260507215003 21 149 8.0 14.5 0.00 0.00 0.00 55 1016.1
20260507214500 21 35 0.0 8.0 0.00 0.00 0.00 53 1016.2
20260507213955 21 141 3.2 9.7 0.00 0.00 0.00 53 1016.0
20260507213452 21 44 3.2 9.7 0.00 0.00 0.00 54 1016.2
20260507212949 21 173 8.0 11.3 0.00 0.00 0.00 53 1016.4
20260507212445 21 192 9.7 16.1 0.00 0.00 0.00 53 1016.3
20260507211942 21 201 11.3 14.5 0.00 0.00 0.00 53 1016.5
20260507211438 21 202 11.3 12.9 0.00 0.00 0.00 53 1016.7
20260507210935 21 191 9.7 11.3 0.00 0.00 0.00 52 1016.6
20260507210432 21 104 4.8 8.0 0.00 0.00 0.00 52 1016.7
20260507205929 21 214 8.0 9.7 0.00 0.00 0.00 51 1016.5
20260507205426 21 95 6.4 9.7 0.00 0.00 0.00 51 1016.6
20260507204922 21 186 4.8 11.3 0.00 0.00 0.00 51 1016.5
20260507204419 21 74 8.0 11.3 0.00 0.00 0.00 51 1016.5
20260507203916 21 51 4.8 9.7 0.00 0.00 0.00 51 1016.4
20260507203414 21 83 11.3 14.5 0.00 0.00 0.00 50 1016.3
20260507202910 22 99 6.4 12.9 0.00 0.00 0.00 50 1016.4
20260507202407 21 202 8.0 11.3 0.00 0.00 0.00 51 1016.3
20260507201903 21 180 4.8 8.0 0.00 0.00 0.00 50 1016.8
20260507201358 22 100 6.4 11.3 0.00 0.00 0.00 49 1016.8
20260507200854 21 36 3.2 4.8 0.00 0.00 0.00 49 1016.8
20260507200351 22 58 9.7 11.3 0.00 0.00 0.00 48 1016.7
20260507195847 22 29 1.6 3.2 0.00 0.00 0.00 48 1017.0
20260507195344 22 41 3.2 8.0 0.00 0.00 0.00 48 1017.0
20260507194842 22 89 8.0 9.7 0.00 0.00 0.00 46 1016.9
20260507194338 22 32 4.8 8.0 0.00 0.00 0.00 48 1017.2
20260507193834 22 17 4.8 9.7 0.00 0.00 0.00 48 1017.2
20260507193332 22 190 4.8 11.3 0.00 0.00 0.00 47 1017.3
20260507192827 22 21 1.6 8.0 0.00 0.00 0.00 46 1017.4
20260507192324 22 320 3.2 9.7 0.00 0.00 0.00 47 1017.5
20260507191820 22 112 3.2 9.7 0.00 0.00 0.00 46 1017.6
20260507191317 22 15 9.7 12.9 0.00 0.00 0.00 46 1017.6
20260507190814 21 35 9.7 11.3 0.00 0.00 0.00 46 1017.6
20260507190313 22 46 8.0 12.9 0.00 0.00 0.00 47 1017.9
20260507185811 21 319 4.8 4.8 0.00 0.00 0.00 47 1017.7
20260507185307 21 60 11.3 16.1 0.00 0.00 0.00 47 1017.7
20260507184804 21 350 3.2 11.3 0.00 0.00 0.00 47 1017.9
20260507184303 21 38 3.2 11.3 0.00 0.00 0.00 48 1017.8
20260507183759 21 25 8.0 17.7 0.00 0.00 0.00 47 1017.5
20260507183256 20 112 4.8 9.7 0.00 0.00 0.00 48 1017.9
20260507182754 21 13 6.4 17.7 0.00 0.00 0.00 48 1017.7
20260507182248 21 33 12.9 20.9 0.00 0.00 0.00 47 1018.2
20260507181745 20 8 1.6 11.3 0.00 0.00 0.00 49 1018.2
20260507181242 20 19 4.8 14.5 0.00 0.00 0.00 49 1018.1
20260507180738 20 53 9.7 20.9 0.00 0.00 0.00 49 1018.3
20260507180235 20 28 11.3 12.9 0.00 0.00 0.00 48 1018.3
20260507175730 20 59 4.8 14.5 0.00 0.00 0.00 49 1017.9
20260507175228 20 38 8.0 12.9 0.00 0.00 0.00 49 1018.4
20260507174725 20 355 8.0 14.5 0.00 0.00 0.00 49 1018.7
20260507174223 20 59 6.4 12.9 0.00 0.00 0.00 52 1018.6
20260507173721 20 70 12.9 17.7 0.00 0.00 0.00 51 1018.6
20260507173217 20 50 3.2 12.9 0.00 0.00 0.00 53 1018.9
20260507172714 20 16 8.0 12.9 0.00 0.00 0.00 53 1018.8
20260507172211 19 15 4.8 8.0 0.00 0.00 0.00 54 1019.1
20260507171710 19 22 4.8 12.9 0.00 0.00 0.00 53 1019.2
20260507171209 19 13 14.5 20.9 0.00 0.00 0.00 54 1019.3
20260507170705 19 21 8.0 12.9 0.00 0.00 0.00 56 1019.4
20260507170202 20 34 8.0 11.3 0.00 0.00 0.00 54 1019.6
20260507165658 19 327 4.8 12.9 0.00 0.00 0.00 55 1019.8
20260507165154 19 0 8.0 16.1 0.00 0.00 0.00 56 1019.9
20260507164650 18 64 4.8 8.0 0.00 0.00 0.00 56 1019.8
20260507164147 18 19 11.3 16.1 0.00 0.00 0.00 56 1020.2
20260507163644 18 31 1.6 8.0 0.00 0.00 0.00 57 1019.8
20260507163142 18 25 6.4 11.3 0.00 0.00 0.00 57 1020.1
20260507162637 17 0 4.8 8.0 0.00 0.00 0.00 59 1020.2
20260507162129 18 14 12.9 14.5 0.00 0.00 0.00 57 1020.1
20260507161625 18 25 6.4 14.5 0.00 0.00 0.00 59 1020.2
20260507161122 17 33 4.8 11.3 0.00 0.00 0.00 62 1020.2
20260507160618 17 31 11.3 14.5 0.00 0.00 0.00 61 1020.1
20260507160115 17 22 12.9 20.9 0.00 0.00 0.00 61 1019.9
20260507155610 17 36 8.0 14.5 0.00 0.00 0.00 62 1020.1
20260507155107 17 63 8.0 11.3 0.00 0.00 0.00 62 1020.1
20260507154604 18 67 4.8 12.9 0.00 0.00 0.00 62 1020.1
20260507154101 17 23 4.8 9.7 0.00 0.00 0.00 64 1020.1
20260507153558 17 3 4.8 9.7 0.00 0.00 0.00 64 1020.4
20260507153054 17 9 4.8 12.9 0.00 0.00 0.00 64 1020.4
20260507152550 17 16 0.0 12.9 0.00 0.00 0.00 64 1020.3
20260507152046 17 0 3.2 8.0 0.00 0.00 0.00 64 1020.4
20260507151543 17 346 6.4 8.0 0.00 0.00 0.00 65 1020.6
20260507151040 17 12 4.8 9.7 0.00 0.00 0.00 65 1020.6
20260507150537 17 359 1.6 9.7 0.00 0.00 0.00 66 1020.3
20260507150034 16 25 4.8 9.7 0.00 0.00 0.00 67 1020.5
20260507145528 17 21 8.0 14.5 0.00 0.00 0.00 66 1020.6
20260507145027 16 28 1.6 1.6 0.00 0.00 0.00 68 1020.5
20260507144523 16 29 3.2 9.7 0.00 0.00 0.00 70 1020.7
20260507144021 16 20 1.6 8.0 0.00 0.00 0.00 69 1020.7
20260507143518 16 13 3.2 11.3 0.00 0.00 0.00 70 1020.5
20260507143015 16 20 0.0 8.0 0.00 0.00 0.00 71 1020.6
20260507142510 16 0 9.7 16.1 0.00 0.00 0.00 71 1020.5
20260507142007 15 35 3.2 9.7 0.00 0.00 0.00 72 1020.7
20260507141503 16 357 6.4 9.7 0.00 0.00 0.00 71 1020.6
20260507141000 15 24 1.6 9.7 0.00 0.00 0.00 73 1020.6
20260507140456 15 1 4.8 11.3 0.00 0.00 0.00 73 1020.8
20260507135954 15 15 3.2 9.7 0.00 0.00 0.00 73 1020.9
20260507135451 16 356 3.2 4.8 0.00 0.00 0.00 73 1021.0
20260507134948 16 346 6.4 9.7 0.00 0.00 0.00 71 1021.0
20260507134444 15 22 0.0 3.2 0.00 0.00 0.00 75 1021.1
20260507133941 15 22 0.0 3.2 0.00 0.00 0.00 78 1021.1
20260507133436 14 348 1.6 3.2 0.00 0.00 0.00 79 1021.0
20260507132936 14 305 4.8 4.8 0.00 0.00 0.00 80 1021.2
20260507132431 13 256 8.0 9.7 0.00 0.00 0.00 81 1021.5
20260507131928 13 304 4.8 4.8 0.00 0.00 0.00 81 1021.1
20260507131425 13 321 3.2 4.8 0.00 0.00 0.00 81 1021.2
20260507130922 13 285 4.8 4.8 0.00 0.00 0.00 82 1021.1
20260507130419 13 248 6.4 8.0 0.00 0.00 0.00 82 1021.0
20260507125918 13 261 4.8 4.8 0.00 0.00 0.00 82 1021.0
20260507125415 13 264 4.8 8.0 0.00 0.00 0.00 82 1021.1
20260507124913 13 290 4.8 9.7 0.00 0.00 0.00 82 1021.1
20260507124408 13 262 3.2 4.8 0.00 0.00 0.00 82 1021.1
20260507123907 13 276 4.8 4.8 0.00 0.00 0.00 82 1021.1
20260507123404 13 6 0.0 1.6 0.00 0.00 0.00 83 1020.8
20260507122900 13 14 1.6 3.2 0.00 0.00 0.00 83 1020.8
20260507122355 13 39 3.2 3.2 0.00 0.00 0.00 84 1020.7
20260507121852 13 46 3.2 3.2 0.00 0.00 0.00 84 1020.9
20260507121347 12 11 0.0 0.0 0.00 0.00 0.00 84 1020.9
20260507120844 12 16 1.6 3.2 0.00 0.00 0.00 84 1020.7
20260507120341 12 3 0.0 0.0 0.00 0.00 0.00 84 1020.7
20260507115837 12 3 0.0 1.6 0.00 0.00 0.00 84 1020.6
20260507115332 12 1 0.0 0.0 0.00 0.00 0.00 84 1020.4
20260507114828 12 344 6.4 9.7 0.00 0.00 0.00 85 1020.8
20260507114326 12 1 3.2 8.0 0.00 0.00 0.00 85 1020.8
20260507113823 12 314 4.8 8.0 0.00 0.00 0.00 85 1020.3
20260507113320 12 342 8.0 11.3 0.00 0.00 0.00 86 1020.6
20260507112818 12 353 3.2 4.8 0.00 0.00 0.00 86 1020.3
20260507112314 12 321 3.2 8.0 0.00 0.00 0.00 86 1020.2
20260507111812 12 357 4.8 8.0 0.00 0.00 0.00 86 1020.2
20260507111308 12 10 1.6 8.0 0.00 0.00 0.00 86 1019.9
20260507110805 12 0 3.2 8.0 0.00 0.00 0.00 86 1020.2
20260507110301 12 352 1.6 4.8 0.00 0.00 0.00 85 1020.0
20260507105758 12 357 3.2 3.2 0.00 0.00 0.00 85 1020.1
20260507105254 12 356 0.0 1.6 0.00 0.00 0.00 86 1019.9
20260507104752 12 340 1.6 4.8 0.00 0.00 0.00 86 1019.8
20260507104248 12 13 1.6 4.8 0.00 0.00 0.00 86 1019.4
20260507103744 12 9 3.2 4.8 0.00 0.00 0.00 86 1019.3
20260507103240 12 19 1.6 4.8 0.00 0.00 0.00 85 1019.2
20260507102737 12 4 3.2 8.0 0.00 0.00 0.00 85 1019.1
20260507102234 12 11 4.8 8.0 0.00 0.00 0.00 84 1019.3
20260507101730 12 358 3.2 9.7 0.00 0.00 0.00 84 1019.2
20260507101225 12 8 1.6 8.0 0.00 0.00 0.00 84 1019.1
20260507100722 12 18 6.4 8.0 0.00 0.00 0.00 83 1018.9
20260507100221 12 25 4.8 8.0 0.00 0.00 0.00 83 1018.9
20260507095719 12 22 1.6 4.8 0.00 0.00 0.00 83 1018.9
20260507095215 12 37 4.8 9.7 0.00 0.00 0.00 82 1018.8
20260507094712 12 33 6.4 9.7 0.00 0.00 0.00 82 1018.7
20260507094209 12 26 3.2 8.0 0.00 0.00 0.00 82 1018.6
20260507093705 12 17 4.8 8.0 0.00 0.00 0.00 82 1018.7
20260507093204 12 19 4.8 9.7 0.00 0.00 0.00 82 1018.7
20260507092701 12 22 3.2 4.8 0.00 0.00 0.00 82 1018.7
20260507092157 12 18 3.2 11.3 0.00 0.00 0.00 82 1018.7
20260507091654 12 44 4.8 4.8 0.00 0.00 0.00 82 1018.6
20260507091150 12 35 3.2 16.1 0.00 0.00 0.00 82 1018.5
20260507090646 12 21 6.4 8.0 0.00 0.00 0.00 82 1018.2
20260507090143 12 35 4.8 12.9 0.00 0.00 0.00 82 1018.4
20260507085640 13 6 1.6 4.8 0.00 0.00 0.00 83 1018.3
20260507085137 13 33 11.3 12.9 0.00 0.00 0.00 83 1018.4
20260507084633 13 19 4.8 9.7 0.00 0.00 0.00 83 1018.6
20260507084130 13 11 9.7 11.3 0.00 0.00 0.00 83 1018.4
20260507083627 13 22 4.8 12.9 0.00 0.00 0.00 83 1018.4
20260507083124 13 14 1.6 8.0 0.00 0.00 0.00 83 1018.7
20260507082619 13 57 11.3 12.9 0.00 0.00 0.00 82 1018.5
20260507082116 13 19 3.2 8.0 0.00 0.00 0.00 82 1018.3
20260507081613 13 25 3.2 9.7 0.00 0.00 0.00 83 1018.4
20260507081109 13 21 6.4 11.3 0.00 0.00 0.00 83 1018.5
20260507080606 13 34 3.2 8.0 0.00 0.00 0.00 83 1018.4
20260507075557 13 8 6.4 16.1 0.00 0.00 0.00 83 1018.2
20260507075054 13 19 4.8 8.0 0.00 0.00 0.00 83 1018.2
20260507074551 13 26 3.2 9.7 0.00 0.00 0.00 83 1017.9
20260507074049 13 24 4.8 14.5 0.00 0.00 0.00 83 1017.9
20260507073545 13 30 4.8 8.0 0.00 0.00 0.00 83 1017.7
20260507073041 13 28 1.6 8.0 0.00 0.00 0.00 82 1017.7
20260507072539 13 45 4.8 14.5 0.00 0.00 0.00 82 1017.6
20260507072036 13 4 6.4 12.9 0.00 0.00 0.00 82 1017.5
20260507071534 13 42 8.0 16.1 0.00 0.00 0.00 82 1017.8
20260507071030 13 33 9.7 14.5 0.00 0.00 0.00 81 1017.6
20260507070527 13 56 4.8 9.7 0.00 0.00 0.00 81 1017.7
20260507070024 13 15 8.0 11.3 0.00 0.00 0.00 81 1017.7
20260507065520 13 35 8.0 11.3 0.00 0.00 0.00 80 1017.5
20260507065018 13 43 3.2 8.0 0.00 0.00 0.00 80 1017.6
20260507064515 13 23 1.6 11.3 0.00 0.00 0.00 80 1017.8
20260507064014 13 39 6.4 12.9 0.00 0.00 0.00 80 1017.8
20260507063511 13 25 4.8 8.0 0.00 0.00 0.00 79 1017.7
20260507063008 13 59 6.4 9.7 0.00 0.00 0.00 79 1017.7
20260507062504 13 21 8.0 16.1 0.00 0.00 0.00 79 1017.6
20260507062002 13 49 4.8 12.9 0.00 0.00 0.00 79 1017.7
20260507061500 14 43 4.8 12.9 0.00 0.00 0.00 79 1017.6
20260507060958 14 33 8.0 12.9 0.00 0.00 0.00 80 1017.5
20260507060455 14 22 11.3 14.5 0.00 0.00 0.00 80 1017.3
20260507055951 14 42 6.4 9.7 0.00 0.00 0.00 80 1017.5
20260507055446 14 48 4.8 11.3 0.00 0.00 0.00 80 1017.5
20260507054943 14 30 4.8 11.3 0.00 0.00 0.00 79 1017.4
20260507054439 14 62 8.0 17.7 0.00 0.00 0.00 79 1017.5
20260507053937 15 32 12.9 16.1 0.00 0.00 0.00 79 1017.6
20260507053434 15 24 12.9 12.9 0.00 0.00 0.00 79 1017.5
20260507052933 15 41 9.7 17.7 0.00 0.00 0.00 79 1017.5
20260507052430 15 41 6.4 11.3 0.00 0.00 0.00 79 1017.5
20260507051927 15 36 4.8 12.9 0.00 0.00 0.00 78 1017.6
20260507051424 15 32 8.0 14.5 0.00 0.00 0.00 78 1017.6
20260507050921 15 38 11.3 14.5 0.00 0.00 0.00 78 1017.6
20260507050418 15 76 4.8 9.7 0.00 0.00 0.00 78 1017.7
20260507045915 15 51 8.0 11.3 0.00 0.20 0.20 78 1017.6
20260507045411 15 19 1.6 12.9 0.00 0.20 0.20 78 1017.7
20260507044909 15 20 8.0 14.5 0.00 0.20 0.20 78 1017.8
20260507044405 15 23 6.4 16.1 0.00 0.20 0.20 78 1017.8
20260507043901 15 19 4.8 12.9 0.00 0.20 0.20 78 1017.9
20260507043357 15 26 8.0 14.5 0.00 0.20 0.20 78 1018.1
20260507042854 15 45 8.0 22.5 0.00 0.20 0.20 78 1017.8
20260507042350 15 29 4.8 16.1 0.00 0.20 0.20 78 1017.9
20260507041846 15 22 6.4 16.1 0.00 0.20 0.20 77 1018.1
20260507041343 15 25 4.8 16.1 0.00 0.20 0.20 77 1018.1
20260507040841 15 359 16.1 22.5 0.00 0.20 0.20 77 1018.3
20260507040336 15 25 8.0 20.9 0.00 0.20 0.20 77 1018.2
20260507035833 15 53 4.8 12.9 0.00 0.20 0.20 77 1018.5
20260507035328 15 38 11.3 17.7 0.00 0.20 0.20 77 1018.2
20260507034826 15 29 9.7 12.9 0.00 0.20 0.20 77 1018.2
20260507034323 15 18 11.3 22.5 0.00 0.20 0.20 77 1018.2
20260507033821 15 30 4.8 11.3 0.00 0.20 0.20 77 1018.2
20260507033319 15 36 6.4 17.7 0.00 0.20 0.20 77 1018.2
20260507032815 15 16 1.6 12.9 0.00 0.20 0.20 77 1018.2
20260507032311 15 13 9.7 16.1 0.00 0.20 0.20 76 1017.9
20260507031808 15 22 12.9 17.7 0.00 0.20 0.20 76 1017.8
20260507031305 15 23 9.7 16.1 0.00 0.20 0.20 76 1017.6
20260507030801 15 3 12.9 33.8 0.00 0.20 0.20 76 1017.7
20260507030259 15 12 6.4 14.5 0.00 0.20 0.20 77 1017.6
20260507025756 15 15 4.8 11.3 0.00 0.20 0.20 77 1017.6
20260507025253 15 36 12.9 16.1 0.00 0.20 0.20 78 1017.3
20260507024751 15 30 4.8 14.5 0.00 0.20 0.20 78 1017.4
20260507024248 15 55 17.7 22.5 0.00 0.20 0.20 78 1017.4
20260507023743 15 55 14.5 20.9 0.00 0.20 0.20 78 1017.2